FW2567 Weather Reports


time (UTC)temp
F
wind
direction
speed
knots
gust
knots
rain 1hr
in
rain 24hr
in
rain mn
in
humidity
%
barometer
mb
20260904180028 56 236 0.0 2.6 0.00 0.06 0.03 92 1015.9
20260904173030 52 60 0.0 2.6 0.00 0.06 0.03 94 1015.8
20260904171606 52 67 0.9 2.6 0.00 0.06 0.03 94 1015.8
20260904164528 53 20 1.7 2.6 0.00 0.06 0.03 94 1015.8
20260904163033 54 27 0.9 3.5 0.00 0.06 0.03 95 1015.7
20260904161528 51 11 0.9 4.3 0.00 0.06 0.03 96 1015.6
20260904154530 49 238 0.0 2.6 0.00 0.06 0.03 96 1015.4
20260904153030 49 247 0.0 2.6 0.00 0.06 0.03 96 1015.3
20260904151533 49 255 0.9 2.6 0.00 0.06 0.03 96 1015.1
20260904150030 49 270 0.0 0.9 0.00 0.06 0.03 96 1014.9
20260904144531 48 270 0.0 0.0 0.00 0.06 0.03 96 1014.9
20260904141531 47 270 0.0 0.0 0.00 0.06 0.03 96 1014.6
20260904140032 47 270 0.0 0.0 0.01 0.06 0.03 96 1014.5
20260904134605 47 270 0.0 0.0 0.01 0.06 0.03 96 1014.3
20260904133030 47 270 0.0 0.0 0.01 0.06 0.03 96 1014.2
20260904131527 47 270 0.0 0.0 0.02 0.06 0.02 96 1014.1
20260904130031 48 270 0.0 0.0 0.01 0.05 0.02 96 1014.0
20260904123028 48 270 0.0 0.0 0.01 0.05 0.01 96 1013.9
20260904121528 48 270 0.0 0.0 0.00 0.04 0.01 96 1013.9
20260904120032 47 270 0.0 0.0 0.01 0.04 0.01 96 1013.8
20260904114531 48 270 0.0 0.0 0.01 0.04 0.01 96 1013.7
20260904113106 48 270 0.0 0.0 0.01 0.04 0.01 96 1013.5
20260904111530 48 270 0.0 0.0 0.01 0.04 0.00 96 1013.4
20260904110029 48 85 0.9 2.6 0.00 0.03 0.00 96 1013.2
20260904104527 47 110 0.0 1.7 0.00 0.03 0.00 96 1013.2
20260904100107 47 220 0.0 0.0 0.00 0.03 0.00 96 1012.8
20260904093029 47 156 0.0 2.6 0.00 0.03 0.00 96 1012.7
20260904091530 47 135 0.0 2.6 0.00 0.03 0.00 95 1012.7
20260904090029 47 135 0.0 0.0 0.00 0.04 0.00 95 1012.7
20260904084532 47 135 0.0 1.7 0.00 0.04 0.00 95 1012.7
20260904083146 47 146 0.0 1.7 0.00 0.04 0.00 95 1012.5
20260904080033 47 157 0.9 2.6 0.00 0.04 0.00 95 1012.6
20260904074530 47 154 0.0 2.6 0.00 0.04 0.00 95 1012.6
20260904073031 47 157 0.0 0.0 0.00 0.04 0.00 95 1012.6
20260904071530 47 157 0.0 1.7 0.00 0.04 0.00 95 1012.6
20260904064644 47 177 0.0 1.7 0.00 0.04 0.04 94 1012.5
20260904063031 47 202 0.0 1.7 0.00 0.04 0.04 94 1012.5
20260904061645 47 189 0.9 2.6 0.00 0.04 0.04 94 1012.5
20260904060108 47 180 0.0 0.0 0.00 0.04 0.04 94 1012.4
20260904053105 48 202 0.0 0.0 0.00 0.04 0.04 94 1012.4
20260904051531 48 195 0.0 1.7 0.00 0.04 0.04 93 1012.5
20260904050029 49 199 0.9 2.6 0.00 0.04 0.04 93 1012.5
20260904044608 49 202 0.0 0.0 0.00 0.04 0.04 93 1012.6
20260904043031 49 202 0.0 0.0 0.00 0.04 0.04 93 1012.6
20260904040030 50 195 0.9 1.7 0.00 0.04 0.04 92 1012.6
20260904033028 50 151 0.0 1.7 0.00 0.04 0.04 90 1012.3
20260904031530 50 173 0.9 3.5 0.00 0.04 0.04 89 1012.3
20260904030030 50 92 0.0 2.6 0.00 0.04 0.04 89 1012.1
20260904024531 51 13 0.9 4.3 0.00 0.04 0.04 88 1012.1
20260904023029 52 342 1.7 5.2 0.00 0.05 0.04 88 1011.9
20260904020104 54 22 0.9 3.5 0.00 0.12 0.04 88 1011.9
20260904014529 54 350 0.0 2.6 0.00 0.19 0.04 87 1011.9
20260904013031 54 350 1.7 4.3 0.00 0.19 0.04 87 1011.9
20260904011528 54 354 2.6 6.1 0.00 0.20 0.04 87 1011.8
20260904010033 54 18 3.5 7.8 0.00 0.21 0.04 87 1011.7
20260904004530 54 24 3.5 9.6 0.00 0.23 0.04 86 1011.7
20260904003033 55 341 2.6 7.0 0.00 0.24 0.04 86 1011.6
20260904000032 55 49 2.6 5.2 0.03 0.28 0.04 83 1011.6
20260903234644 55 53 3.5 6.1 0.03 0.28 0.04 82 1011.6
20260903233032 56 26 2.6 7.0 0.03 0.30 0.02 77 1011.9
20260903231531 58 305 2.6 8.7 0.01 0.28 0.01 72 1011.9
20260903230032 59 325 2.6 8.7 0.00 0.28 0.01 69 1011.8
20260903223030 63 294 3.5 9.6 0.00 0.28 0.01 66 1011.8
20260903221530 63 311 3.5 9.6 0.00 0.28 0.01 67 1011.7
20260903220033 63 342 2.6 5.2 0.00 0.30 0.01 68 1011.7
20260903211532 62 272 2.6 6.1 0.00 0.32 0.01 70 1011.8
20260903210031 62 288 2.6 6.1 0.00 0.33 0.01 70 1012.0
20260903204609 62 304 3.5 7.8 0.00 0.34 0.01 71 1012.0
20260903203030 62 291 3.5 7.0 0.00 0.35 0.01 70 1012.0
20260903201531 63 289 3.5 6.1 0.00 0.35 0.01 73 1012.2
20260903194529 61 288 3.5 6.1 0.00 0.36 0.01 74 1012.4
20260903193030 61 4 3.5 7.8 0.00 0.36 0.01 76 1012.5
20260903191532 59 12 3.5 7.0 0.00 0.36 0.01 79 1012.7
20260903184532 59 332 3.5 7.0 0.00 0.36 0.01 80 1013.0
20260903183029 61 307 3.5 7.8 0.00 0.36 0.01 78 1012.9